Wind_Speed
24 23 23 23 23 22 21 21 22 22 21 20 21 23 24 23 23 26 28 29 30 30 31 31 32 30 28 27 27 26 26 25 25 26 27 28 27 27
23 22 22 22 22 20 19 18 20 22 23 23 23 24 24 23 22 24 26 28 29 29 30 31 32 32 30 28 26 26 25 23 23 24 24 25 25 24
23 21 21 21 21 19 18 18 19 21 23 25 25 26 25 24 22 23 23 23 24 24 25 27 29 30 30 28 27 26 25 24 24 24 24 24 24 23
23 22 21 21 21 19 18 18 19 20 22 24 26 27 26 25 24 23 21 20 20 20 20 22 25 28 29 28 28 28 27 27 26 25 25 25 24 23
24 23 22 21 21 20 19 19 20 20 21 22 24 26 27 28 27 25 23 22 22 21 21 21 22 25 27 29 29 30 30 30 29 28 27 27 26 25
26 24 23 23 23 22 21 20 20 21 20 20 22 25 26 28 29 29 28 27 26 26 25 25 24 24 25 27 29 30 30 30 30 30 29 30 30 29
26 26 25 25 25 24 23 22 21 21 21 21 22 23 25 27 29 30 30 30 30 30 30 29 28 27 27 27 28 29 30 31 31 30 30 31 31 31
27 27 27 26 26 26 25 24 23 22 22 22 22 22 23 25 27 27 28 29 30 31 32 32 32 31 31 30 29 30 30 31 32 32 32 32 33 33
25 26 27 28 27 27 26 26 26 25 25 25 25 24 23 24 24 25 26 26 28 30 32 33 33 34 34 34 33 32 33 33 34 34 34 35 35 35
21 22 23 25 27 28 27 27 27 27 27 26 26 27 26 27 27 27 27 27 28 29 31 32 33 35 36 37 36 36 36 36 36 36 36 36 37 37
21 22 21 21 21 23 25 26 26 27 27 27 26 26 27 27 27 27 27 27 28 29 29 30 32 34 36 37 39 39 39 39 38 38 38 38 38 38
22 22 22 22 21 22 23 24 24 24 25 25 25 25 25 25 26 27 28 28 29 29 30 30 30 31 33 35 39 41 42 42 41 40 40 40 40 40
23 23 23 24 23 23 23 23 23 22 22 22 22 23 23 24 25 25 27 27 27 28 28 28 29 30 32 35 38 41 44 44 44 44 43 43 43 43
22 23 23 23 24 24 25 25 24 22 20 19 19 19 20 21 22 23 24 24 25 26 26 27 29 30 31 32 34 36 39 42 45 47 48 48 48 48
21 22 23 23 24 25 25 25 24 23 21 19 17 16 16 17 19 21 23 25 26 27 29 30 31 33 34 34 35 35 35 37 39 41 44 46 47 48
19 19 20 21 23 24 24 25 24 23 21 18 16 15 16 17 19 21 23 26 28 29 31 33 34 35 36 37 37 37 37 37 37 38 38 40 41 43
13 13 13 14 16 18 20 22 23 22 20 18 16 15 16 18 20 22 24 25 27 28 29 30 30 31 32 34 34 35 36 36 36 37 37 38 39 39
9 9 6 5 5 8 12 16 19 19 17 15 13 14 15 16 17 19 20 22 23 25 26 28 29 29 31 31 33 34 35 35 36 36 37 38 39 41
12 12 11 9 8 10 11 14 15 13 10 8 8 9 10 12 14 16 18 21 23 25 26 28 29 31 32 34 35 37 37 38 38 39 40 40 41 43
18 18 18 18 18 18 17 16 13 10 6 3 1 4 8 11 13 16 18 20 22 24 26 28 29 31 33 34 35 37 39 39 39 40 41 42 43 44
22 23 23 23 22 22 20 18 16 13 9 7 5 6 8 10 12 14 16 18 19 21 22 24 26 27 29 31 32 34 36 37 38 39 40 41 41 42
25 25 25 25 24 22 21 19 17 14 12 10 8 8 9 10 11 12 13 15 16 18 19 21 23 25 27 28 29 30 32 33 35 36 37 38 39 40
25 25 24 24 23 21 19 18 16 14 13 12 11 11 11 11 12 12 14 15 17 18 20 22 24 26 27 28 29 29 30 31 33 34 35 36 38 39
Wind_Direction
267 269 268 269 270 270 266 258 251 249 251 251 248 245 242 241 240 241 242 244 245 246 245 242 241 242 244 245 245 246 247 247 249 252 252 252 253 253
260 263 266 266 267 265 262 257 250 249 248 247 247 246 241 239 239 240 241 243 244 245 246 244 242 242 244 245 245 243 242 243 248 251 250 250 251 250
255 258 261 261 260 260 259 257 254 252 250 248 246 244 238 236 238 241 243 242 242 244 246 246 243 242 244 245 244 241 240 242 249 250 249 248 248 248
253 254 255 256 255 255 256 257 258 256 253 249 244 242 237 231 234 240 243 244 243 246 249 249 247 245 246 247 247 245 244 246 250 250 249 246 245 246
251 251 251 252 252 252 254 256 259 258 254 250 245 241 236 232 233 237 242 246 249 251 253 253 252 250 250 251 252 251 249 249 251 251 250 248 247 247
251 251 251 251 249 248 250 253 256 255 253 252 247 242 239 236 237 239 244 249 253 255 257 256 255 254 254 254 254 254 254 254 254 255 254 252 250 250
255 253 252 252 251 248 248 251 253 253 253 254 251 249 245 242 242 245 248 251 254 256 256 256 257 256 255 255 255 255 254 254 255 256 256 255 254 253
259 255 253 252 252 251 250 251 252 254 254 253 252 254 251 247 247 251 252 253 255 255 255 256 258 258 257 254 253 254 255 255 255 255 255 256 256 256
263 260 257 252 250 251 251 252 253 253 254 253 253 256 257 255 254 256 257 257 258 258 258 256 257 259 259 257 254 253 254 255 256 256 256 257 257 258
267 265 264 260 253 249 249 250 251 253 253 254 254 255 256 259 261 261 262 262 263 264 262 260 259 259 260 259 257 255 255 257 258 258 258 259 259 260
271 271 270 268 261 254 250 249 249 250 251 252 254 256 258 260 263 265 266 265 265 265 266 264 262 261 260 258 258 257 256 257 259 260 259 260 261 262
274 271 269 266 264 260 254 250 249 248 249 250 251 254 257 260 261 262 265 266 267 267 268 266 265 264 263 261 259 257 256 257 259 261 261 261 262 264
277 273 268 264 260 258 255 251 248 248 249 250 251 253 255 258 259 261 264 265 266 266 267 267 267 266 266 264 262 261 258 257 258 260 261 262 264 265
280 275 269 264 259 255 253 250 248 247 248 249 251 253 256 258 261 262 263 264 263 262 261 263 266 266 267 268 266 265 263 261 261 262 262 263 263 263
283 276 269 263 259 255 251 248 244 242 244 246 250 256 261 265 268 269 268 266 266 265 265 267 269 271 272 273 273 272 272 271 268 267 264 262 262 261
288 282 273 267 259 253 248 243 238 234 234 239 248 259 267 272 275 276 277 276 276 276 277 277 278 279 279 279 280 279 278 276 274 273 271 269 266 264
306 298 284 274 263 251 240 232 226 224 226 234 247 261 271 278 282 283 284 285 286 286 286 286 286 286 285 283 282 280 279 278 277 276 275 274 273 271
346 343 330 297 261 226 211 204 203 207 216 229 246 263 274 281 285 287 289 290 291 290 290 289 288 288 287 285 284 283 281 280 278 277 275 273 272 272
40 46 58 76 99 125 145 159 169 181 196 221 250 272 285 292 295 297 298 298 297 295 294 293 291 290 289 287 286 284 282 280 279 277 276 274 273 272
64 68 73 83 94 103 112 122 129 134 139 142 315 317 316 314 312 310 309 306 304 302 301 298 296 293 291 289 287 285 284 282 280 279 277 276 275 274
71 75 79 84 89 94 97 100 100 98 90 71 38 4 346 336 331 328 325 322 319 316 313 310 307 304 301 297 294 291 288 286 284 282 280 279 278 277
75 77 79 81 83 85 86 86 84 81 75 64 49 33 20 10 4 359 353 348 343 337 332 327 322 318 313 308 304 301 297 293 290 287 285 283 281 279
74 76 77 78 79 80 80 80 79 75 71 64 56 48 39 31 23 15 8 1 354 348 342 336 331 328 324 319 315 311 306 302 298 295 292 289 286 283
Height
5819 5818 5817 5816 5815 5815 5814 5813 5814 5814 5815 5815 5816 5817 5819 5821 5823 5826 5830 5832 5834 5836 5837 5839 5841 5843 5845 5846 5848 5849 5851 5852 5854 5855 5856 5857 5859 5860
5812 5811 5811 5811 5810 5809 5809 5808 5808 5809 5810 5810 5811 5812 5814 5816 5818 5821 5824 5826 5827 5829 5831 5833 5835 5837 5839 5840 5842 5843 5845 5846 5848 5849 5850 5851 5852 5853
5804 5804 5804 5804 5804 5804 5804 5803 5803 5804 5805 5805 5806 5807 5809 5812 5814 5816 5818 5820 5822 5823 5825 5826 5828 5831 5833 5834 5836 5837 5839 5841 5842 5843 5844 5845 5847 5848
5797 5797 5797 5798 5799 5799 5799 5798 5798 5799 5799 5800 5800 5802 5804 5807 5809 5812 5813 5815 5817 5818 5820 5821 5823 5825 5826 5828 5829 5831 5833 5834 5836 5837 5838 5839 5840 5842
5790 5790 5790 5791 5793 5793 5794 5794 5794 5794 5794 5795 5795 5797 5799 5802 5804 5807 5809 5811 5812 5814 5815 5817 5818 5819 5820 5822 5823 5824 5826 5827 5829 5830 5832 5833 5834 5836
5783 5783 5783 5785 5786 5787 5788 5789 5789 5789 5789 5790 5790 5792 5794 5796 5799 5801 5803 5806 5808 5809 5811 5812 5813 5813 5814 5815 5817 5818 5819 5820 5821 5823 5825 5826 5827 5829
5776 5776 5777 5778 5779 5780 5782 5783 5784 5784 5785 5786 5786 5787 5789 5791 5793 5795 5797 5800 5801 5803 5804 5806 5807 5808 5808 5809 5810 5811 5812 5813 5814 5816 5817 5818 5820 5821
5769 5769 5770 5771 5772 5773 5775 5776 5778 5779 5780 5781 5782 5783 5784 5785 5787 5789 5791 5793 5794 5796 5797 5798 5800 5801 5802 5803 5804 5805 5805 5806 5807 5808 5809 5811 5812 5813
5763 5762 5763 5763 5764 5766 5767 5769 5771 5773 5775 5776 5777 5778 5779 5780 5781 5783 5784 5786 5787 5788 5789 5790 5792 5793 5794 5795 5796 5797 5798 5798 5799 5800 5801 5802 5803 5805
5756 5756 5756 5756 5757 5758 5760 5762 5764 5766 5768 5770 5772 5773 5774 5775 5776 5777 5778 5779 5780 5780 5781 5782 5783 5784 5785 5786 5788 5788 5789 5790 5791 5791 5792 5793 5794 5795
5751 5751 5751 5751 5751 5751 5753 5755 5757 5759 5761 5763 5765 5767 5768 5770 5771 5772 5773 5773 5774 5774 5774 5774 5775 5775 5775 5776 5777 5778 5779 5781 5781 5782 5782 5783 5784 5785
5744 5744 5745 5745 5745 5745 5747 5749 5751 5752 5754 5756 5759 5761 5763 5764 5765 5766 5767 5767 5767 5767 5766 5766 5766 5766 5766 5766 5767 5768 5769 5770 5771 5772 5772 5772 5773 5774
5737 5737 5737 5738 5739 5740 5741 5743 5744 5746 5748 5751 5753 5755 5757 5758 5759 5760 5761 5761 5761 5760 5760 5759 5758 5758 5757 5757 5757 5758 5758 5759 5760 5761 5761 5761 5762 5762
5729 5729 5729 5730 5731 5732 5734 5736 5739 5741 5744 5746 5748 5750 5752 5753 5754 5754 5754 5754 5754 5753 5753 5752 5752 5751 5750 5749 5748 5748 5748 5748 5748 5749 5749 5749 5749 5749
5722 5721 5720 5721 5722 5724 5727 5730 5733 5736 5739 5742 5744 5746 5747 5748 5749 5749 5749 5748 5748 5747 5746 5745 5744 5743 5742 5741 5739 5738 5738 5737 5736 5736 5736 5736 5736 5736
5714 5713 5712 5712 5713 5715 5718 5722 5726 5730 5734 5738 5740 5742 5743 5744 5744 5744 5743 5743 5742 5741 5739 5738 5736 5735 5733 5731 5730 5728 5727 5727 5725 5724 5723 5723 5722 5722
5709 5706 5705 5705 5705 5706 5710 5714 5720 5725 5730 5734 5737 5738 5739 5739 5739 5738 5737 5736 5735 5733 5731 5730 5728 5726 5724 5722 5720 5718 5717 5716 5715 5713 5712 5711 5710 5709
5707 5703 5701 5700 5700 5701 5704 5709 5716 5722 5728 5731 5734 5735 5736 5735 5735 5734 5732 5731 5729 5726 5724 5722 5720 5717 5715 5713 5711 5709 5707 5705 5703 5702 5701 5700 5698 5697
5708 5705 5702 5701 5701 5702 5706 5711 5717 5722 5727 5730 5732 5732 5732 5732 5731 5729 5727 5725 5723 5720 5717 5714 5712 5709 5706 5704 5700 5698 5696 5693 5691 5689 5688 5687 5685 5683
5713 5710 5708 5707 5708 5709 5712 5716 5720 5724 5727 5729 5730 5731 5730 5729 5727 5725 5723 5720 5717 5713 5710 5707 5703 5700 5697 5693 5690 5686 5683 5680 5678 5676 5674 5672 5670 5669
5719 5718 5716 5716 5716 5717 5719 5722 5724 5727 5728 5730 5730 5729 5728 5727 5724 5722 5719 5715 5711 5707 5703 5699 5695 5691 5687 5683 5679 5675 5671 5667 5664 5662 5660 5658 5656 5654
5727 5726 5725 5724 5725 5725 5726 5727 5728 5729 5730 5730 5730 5729 5727 5725 5722 5719 5716 5712 5708 5704 5699 5695 5690 5685 5680 5675 5670 5665 5661 5657 5653 5649 5647 5644 5642 5640
5736 5734 5733 5732 5732 5732 5732 5732 5732 5732 5732 5731 5730 5729 5727 5724 5721 5718 5714 5710 5706 5701 5696 5691 5685 5680 5674 5668 5662 5657 5652 5647 5643 5639 5636 5632 5629 5626